Weather in Mokhovoye

Russia / Oryol Oblast     52°56′41″N   36°34′14″E
temp.,
°C
wind,
m/s
gust,
m/s
humid.,
%
clouds,
%
prec.,
mm/h
press.,
hPa
HPBL,
m
1 august, sun
sun100:00+19w1172100 0.0 101111
03:00+18ssw2275100 0.0 101211
06:00+19sse3475100 0.0 101266
09:00+25ssw45577 0.0 1012412
12:00+29ssw5640100 0.0 10111925
15:00+29sw6737100 0.0 10112336
18:00+28w234966 0.0 1010225
21:00+23ese225755 0.0 101011
2 august, mon
mon200:00+21s46618 0.0 101082
03:00+20sw336964 0.1 101033
06:00+20s367456 0.1 101098
09:00+26s5953100 0.3 1009433
12:00+31ssw8124087 0.0 10082205
15:00+32sw8103691 0.0 10062687
18:00+31ssw5938100 0.0 1004742
21:00+20ssw121981100 0.9 1007631
3 august, tue
tue300:00+18ese2293100 1.5 100746
03:00+17ssw51194100 1.5 1006360
06:00+18wsw51096100 0.3 1007527
09:00+18w4890100 0.4 1009532
12:00+21wnw666754 0.1 10101195
15:00+24wnw564875 0.1 10101979
18:00+22wnw67575 0.1 10111033
21:00+16wnw36820 0.2 1013121
4 august, wed
wed400:00+15w48850 0.0 1014134
03:00+13w348515 0.0 101553
06:00+13w248475 0.0 101671
09:00+20wnw34575 0.0 1016554
12:00+23wnw444221 0.0 10172154
15:00+22w4445100 0.0 10161454
18:00+21wnw2354100 0.0 1017193
21:00+19wsw2358100 0.0 101754
5 august, thu
thu500:00+18wnw1159100 0.0 101811
03:00+15sw11660 0.0 101811
06:00+15sw1170100 0.0 101810
09:00+20ssw224960 0.0 1018397
12:00+24sw4438100 0.0 10181719
15:00+24sw4442100 0.0 10171311
18:00+19nnw1263100 0.0 101723
21:00+18e2260100 0.0 101735